{"data":{"norad_id":39172,"intl_designator":"2013-026A","name":"SES-6","alt_names":[],"object_type":"PAYLOAD","status":"ACTIVE","operator":null,"country":"SES","launch_date":"2013-06-03","launch_site_code":"TYMSC","launch_vehicle":null,"mission":null,"orbit_class":"UNKNOWN","rcs_meters":79.6214,"size_class":null,"mass_kg":null,"dimensions":null,"purposes":["comms"],"wikipedia_slug":null,"has_3d_model":false,"image_url":null,"decayed_at":null,"tle_current":{"epoch":"2026-05-25T05:28:21.056736Z","epoch_age_seconds":48503,"freshness":"FRESH","line1":"1 39172U 13026A   26145.22802149 -.00000263  00000+0  00000+0 0  9990","line2":"2 39172   0.0270 306.4029 0002640 122.1715 215.8315  1.00271521 47496","mean_motion":1.00271521,"eccentricity":0.000264,"inclination_deg":0.027,"raan_deg":306.4029,"arg_perigee_deg":122.1715,"mean_anomaly_deg":215.8315,"bstar":0,"rev_number":4749,"period_min":1436.1006850589,"perigee_km":35775.53746136,"apogee_km":35797.800478913,"semimajor_km":42164.805970137,"source":"CELESTRAK","updated_at":"2026-05-25T13:38:14.506355Z"}}}